Weather History for MMZC - July, 2013

Change the Weather History Date:

Sunday, July 7, 2013

  Actual Average Record
Temperature  
Mean Temperature 63 °F -  
Max Temperature 69 °F 75 °F 84 °F (1996)
Min Temperature 57 °F 53 °F 48 °F (2001)
Degree Days  
Heating Degree Days 2    
Growing Degree Days 13 (Base 50)    
Moisture  
Dew Point 52 °F    
Average Humidity 72    
Maximum Humidity 82    
Minimum Humidity 53    
Precipitation  
Precipitation 0.00 in - - ()
Sea Level Pressure  
Sea Level Pressure 30.21 in    
Wind  
Wind Speed 7 mph ()    
Max Wind Speed 18 mph    
Max Gust Speed -    
Visibility 8.7 miles    
Events Rain    
Averages and records for this station are not official NWS values.
T = Trace of Precipitation, MM = Missing Value Source: Averaged Metar Reports

Daily Weather History Graph

Daily Weather History Graph

Search for Another Location

Airport or City:

Trip Planner

Search our weather history database for the weather conditions in past years. The results will help you decide how hot, cold, wet, or windy it might be!

Date:

Astronomy

Jul. 07, 2013 Rise Set
Actual Time 7:11 AM CDT 8:40 PM CDT
Civil Twilight 6:46 AM CDT 9:05 PM CDT
Nautical Twilight 6:16 AM CDT 9:34 PM CDT
Astronomical Twilight 5:45 AM CDT 10:05 PM CDT
Moon 6:42 AM CDT (7/7) 8:13 PM CDT (7/7)
Length of Visible Light 14h 18m
Length of Day
13h 28m
Waning Crescent, 0% of the Moon is Illuminated
Jul 7
Waning Crescent
Jul 8
New
Jul 15
First Quarter
Jul 22
Full
Jul 29
Last Quarter

Hourly Weather History & Observations

Time (CDT) Temp. Dew Point Humidity Pressure Visibility Wind Dir Wind Speed Gust Speed Precip Events Conditions
12:47 AM 60.8 °F 51.8 °F 72% 30.21 in 10.0 mi SSW 13.8 mph - N/A   Mostly Cloudy
1:48 AM 60.8 °F 51.8 °F 72% 30.21 in 10.0 mi SSW 11.5 mph - N/A   Mostly Cloudy
2:48 AM 60.8 °F 51.8 °F 72% 30.19 in 10.0 mi South 11.5 mph - N/A   Mostly Cloudy
3:48 AM 60.8 °F 51.8 °F 72% 30.18 in 10.0 mi SSW 9.2 mph - N/A   Mostly Cloudy
4:48 AM 59.0 °F 51.8 °F 77% 30.19 in 10.0 mi WSW 5.8 mph - N/A   Mostly Cloudy
5:45 AM 57.2 °F 51.8 °F 82% 30.19 in 10.0 mi SSW 8.1 mph - N/A   Overcast
6:46 AM 57.2 °F 51.8 °F 82% 30.20 in 10.0 mi SSW 4.6 mph - N/A   Overcast
8:17 AM 57.2 °F 51.8 °F 82% 30.21 in 10.0 mi Calm Calm - N/A   Overcast
9:53 AM 62.6 °F 50.0 °F 63% 30.22 in 8.0 mi SE 5.8 mph - N/A   Overcast
10:43 AM 64.4 °F 51.8 °F 64% 30.22 in 8.0 mi SW 5.8 mph - N/A   Overcast
11:41 AM 66.2 °F 51.8 °F 60% 30.22 in 8.0 mi South 6.9 mph - N/A   Overcast
12:41 PM 66.2 °F 51.8 °F 60% 30.22 in 8.0 mi South 6.9 mph - N/A   Mostly Cloudy
1:48 PM 69.8 °F 51.8 °F 53% 30.21 in 10.0 mi SSE 4.6 mph - N/A   Mostly Cloudy
5:00 PM 62.6 °F 53.6 °F 72% 30.18 in 6.0 mi ENE 18.4 mph - N/A Rain Light Rain
5:19 PM 60.8 °F 53.6 °F 77% 30.19 in 4.0 mi ENE 12.7 mph - N/A Rain Heavy Rain
5:49 PM 60.8 °F 53.6 °F 77% 30.18 in 6.0 mi East 9.2 mph - N/A Rain Light Rain
6:51 PM 62.6 °F 55.4 °F 77% 30.19 in 7.0 mi ESE 6.9 mph - N/A   Overcast
8:48 PM 60.8 °F 53.6 °F 77% 30.22 in 8.0 mi South 4.6 mph - N/A   Overcast
9:46 PM 60.8 °F 51.8 °F 72% 30.24 in 10.0 mi Calm Calm - N/A   Overcast
10:51 PM 60.8 °F 51.8 °F 72% 30.28 in 10.0 mi Calm Calm - N/A   Overcast
11:50 PM 60.8 °F 53.6 °F 77% 30.28 in 10.0 mi SSE 6.9 mph - N/A   Overcast